Regional Weather Roundup
Issued by NWS Cleveland, OH

Home | Current Version | Previous Version | Text Only | Print | Product List | Glossary Off
Versions: 1 2 3 4 5 6 7 8 9 10 11 12 13 14 15 16 17 18 19 20 21 22 23 24 25 26 27 28 29 30 31 32 33 34 35 36 37 38 39 40 41 42 43 44 45 46 47 48 49 50

000
ASUS41 KCLE 191100
RWRCLE
OHIO REGIONAL WEATHER ROUNDUP
NATIONAL WEATHER SERVICE WILMINGTON, OH
700 AM EDT SAT APR 19 2014

NOTE: "FAIR" INDICATES FEW OR NO CLOUDS BELOW 12,000 FEET WITH NO
SIGNIFICANT WEATHER AND/OR OBSTRUCTIONS TO VISIBILITY.

OHZ001>008-015>018-024>027-034-035-043-044-191200-
   NORTHWEST OHIO

CITY           SKY/WX    TMP DP  RH WIND       PRES   REMARKS
DEFIANCE       CLEAR     37  30  75 NE8       30.39R
FINDLAY        CLEAR     37  32  82 NE14      30.37R
TOLEDO EXPRESS CLEAR     35  28  75 NE9       30.40R WCI  28
TOLEDO METCALF CLEAR     37  31  78 NE8       30.41R
LIMA           CLEAR     38  34  85 NE10      30.35R
$$

OHZ009>014-019>023-028>033-038-089-191200-
   NORTHEAST OHIO

CITY           SKY/WX    TMP DP  RH WIND       PRES   REMARKS
CLE-HOPKINS    CLEAR     38  32  79 NE9       30.40R
CLE-LAKEFRONT  CLEAR     38  33  82 NE12      30.38R
CUY CO. ARPT   PTCLDY    34  32  93 NE7       30.38  WCI  28
LORAIN-ELYRIA  CLEAR     37  30  75 NE6       30.39R
ASHTABULA      CLEAR     34  28  79 NE3       30.38R
AKRON-CANTON   PTCLDY    39  36  89 NE9       30.33R
WOOSTER        NOT AVBL
MANSFIELD      CLEAR     36  34  92 N9        30.34R
YOUNGSTOWN     PTCLDY    37  33  85 N7        30.34R
$$

OHZ042-051>053-060>062-070>072-077>081-191200-
  SOUTHWEST OHIO

CITY           SKY/WX    TMP DP  RH WIND       PRES   REMARKS
CINC-COVINGTON PTCLDY    47  37  68 N6        30.26R
CINC-LUNKEN    CLEAR     39  38  96 NE5       30.28R
HAMILTON       CLEAR     46  38  73 CALM      30.29R
DAYTON         NOT AVBL
WRIGHT-PAT AFB CLEAR     44  40  85 NE10      30.30R
DAYTON GENERAL CLEAR     44  39  82 NE8       30.28R
WILMINGTON     CLEAR     44  40  85 NE13      30.27R
$$

OHZ036-037-039>041-045>050-054>059-063>069-073>076-082>088-191200-
  CENTRAL AND SOUTHEAST OHIO

CITY           SKY/WX    TMP DP  RH WIND       PRES   REMARKS
COLUMBUS       PTCLDY    48  38  68 VRB7      30.30R
OSU AIRPORT    CLEAR     40  37  89 N6        30.31R
BOLTON FIELD   NOT AVBL
RICKENBACK AFB NOT AVBL
NEWARK         CLEAR     46  38  73 VRB3      30.31R
MARION         CLEAR     37  34  89 NE13      30.35R FOG
LANCASTER      CLEAR     45  39  79 N3        30.30R
ZANESVILLE     PTCLDY    45  38  76 N5        30.31R
NEW PHILLY     PTCLDY    44  38  79 CALM      30.34R
$$



USA.gov is the U.S. government's official web portal to all federal, state and local government web resources and services.